sim
Sign-in with your pilot id or email,
or register
Callsign
Passwort

Schedule Details

Flight Number: OEC2401
Departure: Oslo Gardermoen Airport (ENGM) at 12:00
Arrival: Thessaloniki International Airport (LGTS) at 15:10
Route: OKSA6D OKSAT L996 LALIL L617 ROE L996 DENKO L616 OGDAS DCT BALAP DCT PARAK DCT BEO DCT OLOTA DCT ERANA UT389 ALIKO ALIK1L

Weather Information
Getting current METAR information for ENGM 211850Z 19008KT CAVOK 14/08 Q1019 NOSIG
Getting current METAR information for LGTS 211850Z 11004KT CAVOK 27/13 Q1017 NOSIG

Schedule Frequency

Route Map